Wind_Speed
44 43 43 43 43 44 45 45 46 46 47 46 45 44 44 43 42 42 41 41 41 42 43 43 44 45 45 46 46 47 47 48 49 50 51 52 53 53 52 51 50 48 47 45 43 40 38 37 35 34 34 33 33 32 32 32 32 32 32 32 32 33 33 33 34 34 33 33 33 34 35 35 36 37 38 40 40 40 40 40 40 40 41 41 41 41
43 43 43 43 44 44 45 45 44 44 44 43 43 42 42 42 42 43 43 43 43 43 44 44 45 45 46 46 47 48 49 50 51 52 53 53 53 52 51 49 48 46 44 42 40 37 36 34 34 33 33 32 32 32 32 32 32 32 33 33 33 34 34 35 35 35 34 34 35 35 36 37 38 39 40 40 40 40 40 40 40 40 40 41 41 41
42 42 43 43 43 43 42 42 42 41 41 41 41 42 42 43 43 44 44 44 44 44 44 44 45 46 46 47 48 49 50 51 52 53 53 53 52 50 49 47 45 43 41 39 37 35 34 33 33 32 33 33 33 33 33 33 33 33 34 34 35 36 36 36 36 36 37 37 37 38 38 39 39 40 40 39 40 40 40 40 40 40 40 40 40 40
41 41 41 41 41 40 40 40 40 40 40 41 42 42 43 43 44 44 43 43 43 44 44 45 46 47 48 49 50 51 52 52 53 53 52 51 50 48 46 44 42 40 38 37 35 34 33 32 32 33 33 33 33 34 34 34 34 35 35 36 37 38 39 39 38 38 39 39 39 40 40 40 39 39 39 39 39 39 39 39 39 39 39 39 39 39
39 40 40 40 39 39 39 39 39 40 41 41 42 43 43 43 43 43 43 44 44 44 45 46 47 48 50 51 51 52 52 52 52 51 50 49 48 46 44 42 40 38 37 35 34 33 33 33 33 34 34 35 35 35 35 35 34 34 35 36 38 41 42 42 41 41 41 40 40 40 40 39 39 39 39 39 39 38 38 38 38 38 38 38 38 37
39 39 39 39 39 39 39 39 39 40 41 42 42 42 43 43 43 44 44 44 45 46 47 48 49 50 51 52 52 52 52 51 51 50 48 47 45 44 42 41 39 37 36 35 34 34 33 34 34 35 36 36 37 37 37 36 35 34 33 35 39 43 45 45 43 42 42 41 40 39 39 38 38 38 38 38 37 37 37 37 37 37 37 37 37 36
38 38 39 39 39 39 39 39 40 41 42 43 43 43 43 43 44 44 45 46 47 48 49 50 51 52 52 52 52 52 51 50 49 48 47 45 44 42 41 40 38 37 36 35 35 35 35 35 36 37 37 38 38 39 38 38 37 34 32 34 39 44 46 45 44 43 42 41 40 38 38 37 37 37 36 36 36 36 36 36 36 36 36 36 35 35
38 39 39 39 40 40 40 40 40 41 42 43 44 45 45 45 45 45 46 47 48 50 51 52 53 53 53 52 51 51 50 48 47 46 45 43 42 41 40 39 38 37 37 36 36 36 37 37 38 39 39 40 40 40 40 39 38 36 34 36 40 42 43 43 43 42 41 39 38 37 36 36 35 35 35 35 35 35 35 35 35 35 35 35 35 34
38 39 40 40 40 41 42 42 42 42 42 44 45 46 47 47 48 48 48 49 50 51 53 53 54 54 53 52 50 49 48 47 45 44 43 42 41 41 40 39 39 38 37 37 38 38 39 39 40 41 41 42 42 42 41 41 40 39 38 38 39 40 40 40 40 39 38 37 36 35 34 34 34 34 34 34 34 34 35 35 35 34 34 34 34 33
39 40 40 41 42 42 42 43 44 44 44 45 46 47 48 49 50 51 51 52 52 53 54 54 54 54 53 52 50 47 46 45 44 43 41 41 40 40 40 39 39 39 38 39 39 40 40 41 42 42 42 43 43 42 42 41 40 39 38 37 37 37 37 37 36 36 35 35 34 33 32 32 33 33 33 34 34 34 34 34 34 33 33 33 33 32
40 41 42 42 43 44 44 44 45 46 47 47 48 49 50 50 51 52 53 54 55 55 55 55 54 52 51 50 48 46 44 43 42 41 40 40 39 39 39 39 39 39 40 40 40 41 41 42 42 43 43 43 42 42 41 40 39 38 37 36 35 34 34 33 33 33 32 32 31 31 31 32 32 33 33 33 33 33 33 33 33 32 32 32 31 31
41 42 43 44 45 46 46 47 48 48 49 50 51 52 52 53 53 53 54 55 55 55 55 54 53 51 49 47 46 45 43 41 40 40 40 39 39 39 39 40 40 40 40 41 41 41 42 42 42 42 42 41 41 40 39 38 37 35 34 33 32 32 31 30 30 30 29 29 29 30 31 32 32 33 33 33 32 32 32 31 31 31 31 30 29 29
43 44 45 46 47 47 48 50 51 51 52 52 53 53 54 55 55 55 54 55 55 54 54 53 52 49 46 44 43 42 41 40 40 39 39 39 39 40 40 40 41 41 41 41 41 41 41 41 41 40 40 39 38 37 36 35 33 32 31 30 30 29 29 29 28 28 28 28 29 30 31 32 32 32 32 32 31 31 30 30 30 29 29 28 28 27
45 46 47 48 48 50 51 52 53 53 54 54 54 54 55 55 55 55 55 55 54 53 52 51 49 47 44 42 41 40 40 40 40 40 40 40 40 40 41 41 42 42 42 42 41 41 41 40 39 39 37 36 35 34 33 31 30 29 29 28 28 28 28 28 27 27 28 29 30 31 31 32 31 31 31 30 30 29 29 28 28 27 27 26 26 25
46 47 49 50 51 52 53 53 54 54 55 55 54 54 55 55 55 55 54 54 53 52 50 49 47 45 42 40 40 40 40 40 41 41 41 41 41 41 42 42 43 42 42 41 41 40 39 38 37 36 35 34 32 31 30 28 27 27 26 26 26 27 27 27 27 27 28 29 30 30 30 30 30 29 29 28 28 27 27 26 26 25 25 24 24 24
48 49 50 51 52 53 53 54 54 54 54 54 54 54 53 54 54 54 53 52 51 49 48 46 45 44 43 41 40 39 40 41 42 43 43 43 43 43 43 43 43 43 42 41 39 38 37 36 35 34 32 31 29 28 27 26 25 25 25 25 25 25 26 26 27 27 28 29 29 29 29 29 28 28 27 27 26 25 25 24 23 23 23 23 22 22
50 51 51 52 53 53 53 53 53 53 53 53 53 53 52 52 52 51 51 49 48 47 45 44 43 43 43 42 41 40 41 42 44 44 45 45 44 43 43 43 42 42 41 39 37 36 35 34 33 31 30 28 27 25 24 24 23 23 24 24 25 25 26 26 27 27 28 28 28 28 28 27 27 26 26 25 24 23 22 22 21 21 21 21 21 21
51 51 52 52 52 52 52 52 52 53 52 52 52 51 51 50 49 48 47 46 45 44 43 42 42 42 42 43 42 42 42 43 44 45 46 45 44 43 43 42 41 40 38 37 35 34 33 31 30 29 27 26 24 23 23 22 23 23 23 24 24 25 26 26 27 27 27 27 27 27 26 26 25 24 23 22 21 21 20 20 20 20 20 20 20 20
52 52 52 52 52 52 51 51 51 51 51 51 50 50 49 49 47 46 45 44 43 42 41 41 41 41 42 42 43 43 43 44 45 45 45 44 43 42 41 40 38 37 36 34 33 31 30 29 27 26 24 23 22 22 21 22 22 23 23 24 25 25 26 26 27 27 27 26 26 26 25 24 23 22 20 20 19 19 19 19 19 19 19 19 19 19
52 52 51 51 51 51 51 50 49 49 49 49 48 48 47 46 45 44 43 42 41 41 41 41 41 41 42 42 43 43 44 44 44 44 44 43 41 40 38 37 36 35 33 32 30 29 28 26 25 23 22 21 20 20 21 21 22 23 23 24 25 25 26 26 26 26 26 26 25 24 23 21 20 19 18 18 18 18 18 18 18 18 18 18 18 18
51 51 50 49 49 48 48 48 48 47 46 46 46 46 45 45 44 43 42 41 41 41 41 41 41 42 42 42 43 43 44 43 43 42 41 40 38 37 36 34 33 32 31 30 28 27 26 24 23 21 20 20 20 20 21 21 22 23 24 24 25 25 25 26 26 25 25 24 22 21 20 19 18 17 17 17 17 17 17 17 17 17 17 17 17 17
49 49 49 48 47 46 46 46 45 45 44 44 44 44 44 43 43 42 42 41 41 41 42 42 42 42 42 42 41 42 42 41 39 39 38 37 35 34 33 32 31 30 29 28 27 26 24 22 21 20 20 20 20 20 21 22 22 23 23 24 24 24 24 24 24 23 22 21 19 18 17 17 17 16 16 16 17 17 17 17 17 17 16 16 16 16
47 46 46 46 45 45 44 44 43 43 42 42 42 42 42 42 41 41 42 42 42 42 42 42 42 41 41 40 39 39 38 37 36 35 34 33 32 31 31 30 29 29 28 27 26 24 22 21 20 19 19 19 20 20 21 22 22 22 23 23 23 23 22 22 21 20 18 17 17 16 16 16 16 16 16 16 17 17 17 16 16 16 15 15 14 14
46 45 44 44 43 43 43 42 41 41 41 41 42 42 41 41 41 41 41 42 42 42 42 42 41 40 38 37 35 35 34 33 33 32 31 30 30 29 29 29 29 28 27 26 25 23 21 20 19 18 18 19 19 20 20 21 21 21 21 21 21 20 19 19 18 17 16 16 15 15 15 16 16 16 16 17 17 16 16 16 15 14 14 13 12 12
44 44 43 43 42 42 41 41 40 40 41 41 42 42 41 41 41 41 41 41 41 41 40 39 38 37 35 34 32 31 31 30 29 28 28 28 28 28 29 29 29 28 27 25 24 22 20 18 17 17 17 18 18 19 19 19 19 19 19 18 18 17 17 16 16 15 15 15 15 16 16 16 16 17 17 16 16 16 15 14 14 13 12 11 10 10
43 42 42 41 41 41 40 40 39 40 40 41 41 42 41 41 41 40 40 40 39 38 37 36 35 33 32 30 29 28 27 27 27 27 27 28 28 28 29 29 28 27 26 24 22 21 19 17 16 16 16 16 17 17 17 17 17 17 16 16 16 15 15 15 15 15 15 15 16 16 17 17 17 17 16 16 15 15 14 13 13 12 11 10 9 9
41 41 40 40 40 40 39 39 39 39 40 40 41 41 41 40 40 40 39 38 37 36 34 33 31 30 28 26 25 25 25 25 26 26 27 28 29 29 29 29 28 27 25 23 21 19 17 16 15 15 15 15 15 16 16 15 15 15 15 15 15 15 15 15 15 15 16 16 16 17 17 17 17 16 15 15 14 14 13 13 13 12 11 11 10 9
39 39 39 39 39 39 39 39 38 38 39 39 40 40 40 39 39 38 37 36 34 32 31 29 28 26 25 23 23 23 24 25 26 27 28 28 29 29 29 28 27 26 24 21 19 16 15 14 14 14 14 15 15 15 15 15 15 15 15 15 15 15 15 15 15 15 16 17 17 17 17 17 16 15 15 14 14 14 13 13 13 13 12 12 12 12
38 38 38 38 38 38 38 38 38 38 38 38 38 38 38 37 36 35 34 32 30 28 27 25 24 23 22 21 21 22 23 25 27 28 28 28 29 29 28 28 27 25 23 20 16 13 12 13 14 14 14 14 15 15 14 15 15 15 15 15 15 15 15 15 15 16 16 17 17 17 17 16 15 15 14 14 14 14 14 14 13 13 13 13 14 14
37 37 37 37 37 37 37 37 37 37 37 37 36 36 36 34 33 31 30 28 27 25 23 22 22 21 21 21 21 22 24 26 28 29 29 30 30 29 28 27 26 24 22 19 16 13 11 12 13 14 15 15 15 15 15 15 15 15 15 14 14 14 14 14 15 16 16 17 17 17 16 15 15 14 14 14 14 14 14 15 14 14 15 15 16 16
37 36 36 36 36 36 36 36 35 35 35 34 34 33 32 31 30 28 26 25 23 22 20 20 20 20 21 21 22 23 25 27 29 30 30 30 30 29 28 26 24 22 21 19 17 14 12 12 13 14 15 15 15 15 15 15 15 14 14 14 13 13 14 14 15 16 16 17 17 16 16 15 14 13 13 14 14 15 15 16 16 16 16 17 18 18
36 35 35 35 35 35 34 34 34 33 33 32 31 30 29 28 26 25 23 21 20 19 18 18 18 19 20 21 23 24 26 28 29 30 30 30 29 28 26 25 23 20 19 18 17 17 15 14 14 15 15 15 15 15 15 15 15 14 13 13 13 13 13 14 15 16 16 16 16 16 15 15 14 14 14 14 15 15 16 17 17 18 19 19 20 20
35 34 34 34 34 33 33 33 32 32 31 30 29 28 27 25 24 22 20 19 18 17 17 17 17 18 19 20 22 24 26 27 29 30 30 29 28 26 24 23 21 19 17 16 16 16 16 16 15 15 15 15 15 15 15 15 15 14 14 13 13 13 14 15 16 16 16 16 16 16 15 15 15 15 15 15 16 16 17 17 18 19 20 21 21 22
34 34 33 33 33 32 32 32 31 30 29 28 27 26 24 23 21 19 18 17 16 16 16 16 17 18 19 21 22 24 25 27 28 28 28 27 26 24 22 21 19 18 16 16 15 15 15 16 16 15 15 15 15 15 15 15 15 14 14 14 14 14 15 15 16 16 17 17 16 16 15 15 15 15 16 16 16 17 17 18 18 19 19 20 21 22
33 33 33 32 32 32 31 30 29 28 27 26 25 24 22 21 19 17 16 15 15 15 16 16 17 19 21 22 24 25 26 27 27 27 26 25 23 22 21 20 18 17 16 16 15 15 15 15 15 15 15 14 14 14 14 14 14 14 15 15 15 15 16 16 17 17 17 17 17 17 16 16 16 16 17 17 17 18 18 18 18 18 19 19 20 21
33 33 32 32 31 31 30 29 28 27 26 24 23 22 20 18 17 15 15 14 14 14 15 16 18 19 21 23 25 26 27 27 26 26 24 23 21 20 19 18 18 17 16 16 16 15 15 15 15 15 14 13 13 12 12 13 13 14 15 15 15 16 17 17 18 18 18 18 18 18 18 18 18 18 19 19 19 19 19 19 19 18 18 19 19 20
33 32 32 31 30 30 29 28 27 26 24 22 21 20 18 16 15 14 13 13 13 13 14 16 17 19 21 23 25 26 27 27 26 24 23 21 19 18 17 17 17 16 16 16 16 15 15 14 14 14 14 14 13 12 11 11 12 13 15 16 16 17 18 18 19 19 19 19 20 20 20 21 21 21 21 21 21 21 20 20 20 19 19 19 19 19
33 32 32 31 30 29 28 28 26 25 22 21 19 17 16 14 13 12 12 12 12 13 14 15 17 19 21 23 25 26 27 26 25 23 21 19 18 17 16 15 15 15 16 16 16 15 15 14 14 13 13 14 13 12 11 11 12 13 15 16 17 18 19 19 19 20 20 20 21 22 22 23 23 23 23 23 23 22 22 21 21 20 20 19 19 19
33 32 31 30 30 29 28 27 25 23 21 19 17 15 14 12 11 11 10 11 11 12 13 15 17 19 21 23 24 26 26 26 24 22 20 19 17 16 15 14 14 14 15 15 15 15 15 15 14 14 13 14 14 13 13 13 13 14 15 17 17 18 19 19 20 20 21 22 22 23 24 24 25 25 25 25 25 24 23 22 22 21 21 21 21 21
33 32 31 30 29 28 27 26 24 22 19 17 15 13 11 11 10 10 10 10 11 12 13 15 16 18 20 22 23 25 25 24 23 21 19 18 16 15 14 14 13 14 14 15 15 15 15 15 15 14 14 14 14 15 15 15 16 16 17 17 17 18 19 19 20 21 22 23 24 24 25 26 26 27 27 27 26 25 24 24 23 22 22 22 22 22
34 32 31 30 29 28 26 24 22 20 18 15 13 11 10 9 9 9 10 10 11 12 13 14 15 16 18 20 21 23 23 22 21 19 18 17 15 14 14 13 13 13 14 14 15 15 15 15 15 15 14 15 15 16 17 18 18 18 18 18 18 18 19 20 21 22 23 24 25 26 26 27 28 28 28 28 27 26 25 25 24 23 23 23 23 22
33 32 31 30 28 27 25 23 21 19 16 13 10 9 8 8 8 9 9 10 11 12 13 14 14 15 16 17 19 20 20 20 19 18 17 16 15 14 14 13 13 13 13 14 14 15 15 16 15 15 15 16 16 17 18 19 19 19 19 18 18 18 19 20 22 23 24 25 26 27 28 28 29 29 29 29 28 27 26 25 24 23 23 23 22 22
33 32 30 29 28 26 24 22 20 17 14 11 8 7 7 7 8 9 9 10 12 13 14 14 14 14 15 15 16 16 17 17 17 16 16 15 14 14 14 14 14 14 13 13 14 15 15 16 16 17 17 17 17 18 18 18 18 18 18 18 19 19 20 21 22 24 25 26 27 28 29 29 29 30 30 30 29 28 26 25 24 23 22 22 21 21
32 31 30 29 27 25 23 20 18 15 12 9 7 6 6 7 8 9 10 11 13 14 14 14 14 14 14 14 13 13 13 14 15 15 15 15 14 14 14 14 14 14 13 13 14 14 15 16 17 17 18 18 18 18 18 18 18 18 18 19 20 21 22 23 24 25 26 27 28 29 30 30 30 30 31 30 30 29 27 25 23 22 21 21 20 20
32 31 29 28 26 24 21 18 16 13 10 8 6 5 6 7 8 9 11 12 14 14 15 15 15 15 15 14 12 11 10 11 12 13 14 14 15 15 15 15 14 14 14 14 14 14 15 15 16 17 17 18 18 18 17 17 17 17 18 19 21 22 23 24 25 26 27 28 29 30 30 31 31 31 31 31 30 29 28 26 24 22 21 19 19 18
31 30 28 27 25 22 19 16 14 11 9 7 5 5 6 7 8 10 12 13 14 14 15 15 16 17 17 15 12 10 9 9 10 11 12 13 14 15 15 15 15 15 14 14 14 15 15 15 15 16 16 16 17 17 17 16 17 17 18 20 21 22 23 24 25 27 28 29 30 30 31 32 32 32 32 31 30 29 28 26 24 22 20 19 18 17
30 29 27 26 24 21 18 15 12 9 7 6 5 5 6 7 9 11 13 13 14 14 14 15 16 17 17 15 13 12 11 10 10 11 11 12 13 14 15 16 16 16 16 15 15 15 15 15 15 15 15 15 15 15 16 16 17 18 19 20 21 22 23 24 26 27 28 29 30 31 32 32 33 33 33 32 31 29 28 26 24 22 20 19 17 16
30 28 27 25 23 19 16 13 10 7 5 4 4 5 6 8 10 12 13 13 13 14 14 15 16 17 16 15 13 13 12 12 11 11 11 11 12 13 14 15 16 17 17 17 16 16 15 15 14 14 14 14 15 15 16 17 17 18 19 20 21 22 23 24 25 27 28 29 30 31 33 33 34 35 35 34 32 30 28 26 24 22 20 18 17 16
29 27 26 24 21 18 14 11 8 6 4 3 4 5 6 9 12 13 14 13 14 14 15 16 17 17 16 15 13 12 12 12 12 11 11 11 11 11 12 13 15 16 17 18 18 17 16 15 15 15 15 15 15 15 16 17 18 19 19 20 21 22 23 24 25 26 27 28 30 31 33 34 35 36 36 35 33 30 28 26 24 22 20 18 16 15
28 26 25 22 20 17 13 10 8 5 4 4 4 5 7 10 12 13 13 13 14 15 16 17 17 17 16 15 13 12 12 11 11 11 10 10 10 11 11 12 13 14 15 17 18 18 17 17 16 15 15 15 15 16 16 17 18 19 19 20 21 22 22 23 24 26 27 29 30 32 34 35 36 37 37 36 34 31 29 26 24 22 20 18 16 15
27 25 23 21 19 16 13 10 8 6 5 5 5 6 8 10 12 12 12 12 13 15 16 16 17 16 16 14 13 12 12 11 11 11 10 10 11 11 11 12 12 13 13 14 15 15 16 16 16 15 15 15 15 16 16 17 18 18 19 20 21 22 22 23 24 26 27 29 31 33 34 36 37 37 37 36 34 32 30 27 25 23 21 18 16 14
Wind_Direction
299 299 299 298 297 297 296 297 297 298 299 300 300 299 298 298 297 297 297 296 295 295 294 295 295 295 296 297 297 298 299 299 299 299 300 301 302 304 305 307 309 310 310 311 311 311 311 311 311 311 310 310 309 307 306 304 303 302 301 300 299 299 299 299 299 299 300 299 296 294 291 290 288 286 285 286 288 290 292 293 293 293 294 294 294 295
300 299 299 298 298 298 298 299 299 299 300 299 299 298 297 296 296 295 295 295 294 294 295 295 296 296 297 298 299 299 300 300 301 302 303 304 306 308 309 311 311 312 312 312 312 312 312 312 312 312 311 310 309 308 307 305 303 302 301 300 300 300 300 300 301 301 300 296 293 290 289 287 286 286 286 288 290 291 292 293 293 294 294 294 295 295
301 300 299 299 299 300 300 301 301 300 299 298 297 296 296 295 295 295 295 295 295 296 296 297 297 298 298 299 300 301 302 303 304 305 307 308 310 311 312 313 313 313 313 312 312 312 312 312 312 312 311 311 310 309 307 306 305 303 302 301 301 300 300 300 301 300 298 295 293 291 289 288 288 288 289 290 291 291 292 293 294 294 294 295 295 295
302 302 301 301 302 302 302 302 301 300 299 298 297 296 296 296 297 297 297 297 297 297 297 297 298 298 299 300 302 303 305 306 307 309 310 311 312 313 313 313 313 313 313 312 312 312 312 312 311 311 310 310 310 309 308 308 307 305 304 303 301 300 299 300 300 299 298 297 297 296 294 293 292 292 291 290 291 291 292 293 294 294 295 295 294 294
303 303 303 303 304 304 303 302 301 300 299 298 298 298 298 299 299 299 298 298 298 297 298 298 299 300 301 302 304 306 308 309 310 311 312 312 313 313 314 314 313 313 312 311 311 310 310 310 309 309 309 309 309 309 309 308 307 305 304 302 300 299 299 300 300 301 301 300 300 298 297 295 294 292 291 290 290 291 292 293 294 294 294 294 294 294
305 305 305 305 305 304 304 303 302 301 300 300 299 300 300 300 300 299 299 298 298 298 298 299 300 301 303 305 307 309 310 311 312 312 313 313 314 314 314 313 313 312 311 311 310 309 308 308 308 308 308 308 308 308 308 306 305 304 302 299 296 295 297 299 301 301 301 300 299 298 296 295 294 292 291 291 291 292 293 293 294 294 294 294 293 293
307 307 306 306 306 305 304 303 303 302 302 301 301 301 301 300 300 299 299 299 299 299 299 300 301 303 305 308 310 312 313 313 313 313 314 314 314 314 313 313 312 312 311 310 310 309 308 308 308 308 308 308 308 307 307 306 305 303 297 291 289 291 295 298 300 300 299 299 297 296 295 294 293 292 292 292 292 293 293 293 294 294 294 294 293 293
309 308 307 306 306 305 305 304 303 303 303 302 302 302 301 301 300 299 299 299 300 300 301 302 304 306 309 311 313 314 314 314 314 314 314 314 314 313 313 312 312 312 312 311 311 310 310 309 309 309 308 308 307 306 305 305 304 300 293 286 286 289 294 296 297 297 297 296 295 294 293 293 292 292 292 292 293 293 294 294 294 294 294 294 293 293
309 308 307 306 305 305 305 304 304 303 303 303 302 302 302 301 301 301 301 301 301 302 304 306 307 310 312 314 315 315 315 315 315 315 315 314 313 313 312 312 313 313 313 312 312 311 311 310 309 309 308 307 307 306 305 303 302 299 295 292 291 292 293 294 294 294 294 293 292 292 292 292 292 292 292 293 293 294 295 295 295 295 295 294 293 292
309 308 307 306 305 305 305 304 304 304 303 303 302 302 302 303 303 303 303 304 305 306 307 309 311 313 314 316 316 316 316 315 315 314 314 313 313 312 312 313 313 314 313 312 311 311 310 309 309 308 307 306 305 304 303 302 301 300 298 296 295 294 293 293 292 292 291 291 291 291 291 291 291 292 292 293 294 295 295 296 296 296 295 294 293 292
309 308 307 306 306 306 305 304 304 303 303 303 303 303 304 305 305 306 306 307 308 309 310 312 313 315 316 316 316 316 315 315 314 313 313 312 312 312 312 313 313 313 313 312 311 310 309 308 308 307 306 305 304 304 303 302 301 300 299 297 296 294 293 292 291 290 290 289 289 290 290 290 291 292 293 294 295 296 297 298 298 297 296 295 294 293
308 308 307 307 306 306 306 305 304 304 304 304 305 306 307 308 308 309 310 310 311 312 313 314 315 316 317 316 316 315 315 314 313 313 312 312 312 313 313 313 313 313 312 311 310 309 308 307 306 306 305 304 304 303 303 302 301 300 299 298 296 294 293 291 290 289 289 288 288 289 289 290 291 293 294 296 297 298 299 299 298 297 296 295 294 293
308 308 308 307 307 307 306 306 305 305 306 307 308 309 310 310 311 312 312 313 313 314 314 315 316 316 317 316 316 315 315 314 313 312 312 312 313 314 313 313 312 312 311 310 309 309 308 307 306 305 305 304 304 303 303 302 301 300 298 297 295 293 291 290 289 288 287 287 288 289 290 292 294 295 297 299 300 301 300 300 298 297 296 295 294 293
309 309 308 308 308 307 307 307 308 308 309 310 311 311 311 312 312 313 313 314 314 314 315 315 316 316 317 317 316 316 315 314 313 313 313 313 313 314 313 312 312 312 311 310 310 309 309 308 307 307 307 306 305 305 304 303 301 300 298 296 294 293 291 290 288 287 287 288 289 291 293 295 297 299 301 302 302 302 301 299 298 297 296 295 294 293
310 310 309 309 309 309 309 309 310 311 311 312 312 313 313 313 313 313 314 314 314 315 316 316 316 317 317 317 317 317 316 315 314 314 314 314 314 314 314 313 312 312 312 311 311 311 310 310 310 309 309 309 308 307 306 304 302 300 299 297 295 294 293 292 290 290 290 291 293 295 297 299 301 303 304 305 304 302 301 299 298 297 296 295 294 293
311 310 310 310 310 310 311 311 312 312 312 312 313 313 313 313 313 313 314 314 315 316 317 317 317 318 318 318 318 318 317 316 315 314 315 315 316 316 315 314 314 313 314 314 314 314 313 313 313 313 313 313 312 310 308 306 304 302 300 299 298 297 296 296 295 295 295 296 298 300 302 304 306 307 307 306 304 302 300 299 298 297 296 295 294 293
311 311 311 311 311 312 312 312 312 312 312 312 312 312 312 312 313 313 314 315 316 317 318 318 318 318 319 319 319 319 318 316 315 315 316 316 317 317 317 316 315 316 316 317 317 317 317 317 317 317 316 315 314 312 309 306 304 302 301 300 300 300 300 300 300 300 301 303 305 306 308 309 309 309 307 306 304 302 301 299 298 297 296 295 294 293
312 312 312 312 312 312 312 312 312 312 312 312 312 312 312 312 313 314 315 316 317 318 318 318 318 318 319 319 319 319 318 316 315 315 316 317 318 318 318 317 317 318 319 320 320 320 320 320 320 320 318 317 314 311 308 305 303 302 301 301 302 302 303 303 304 305 307 309 310 311 312 312 311 309 307 306 304 303 302 300 299 297 296 295 295 294
313 313 313 313 312 312 312 311 311 311 312 312 312 312 313 313 314 315 316 317 317 317 317 318 318 318 318 319 319 318 317 316 315 316 317 318 319 319 319 319 319 320 321 322 323 322 322 323 322 321 319 317 313 309 306 304 302 302 302 302 303 304 305 306 308 310 312 313 314 314 314 313 311 310 308 307 306 304 303 301 300 299 298 298 297 298
314 313 313 313 312 312 312 311 312 312 312 312 312 313 313 313 314 316 317 317 317 317 317 317 317 318 318 318 318 317 316 316 316 317 317 319 320 320 320 320 321 322 323 324 324 325 325 325 324 322 319 315 311 308 305 303 302 302 303 303 305 306 308 310 312 314 315 316 316 316 315 314 313 311 310 309 307 305 304 303 302 302 302 303 303 304
314 314 313 313 312 312 311 312 312 312 312 313 313 313 313 314 316 316 317 317 317 317 317 317 318 318 318 318 318 317 316 317 317 317 318 319 320 321 321 321 322 323 325 325 326 327 327 327 325 323 319 315 311 308 305 304 304 304 305 306 308 310 312 314 315 316 317 318 318 317 317 316 315 314 312 310 309 308 307 306 307 307 308 309 310 310
314 313 313 312 312 312 312 312 312 313 313 313 313 313 314 315 317 317 317 317 317 317 317 318 318 318 318 318 317 317 316 317 317 318 318 319 320 321 322 323 324 325 326 327 327 328 329 328 326 323 318 314 311 308 307 306 306 307 308 310 312 314 316 317 318 319 320 320 320 321 320 319 317 315 314 312 311 311 311 312 313 314 315 315 315 315
314 313 313 312 312 313 313 313 314 314 314 314 313 314 315 316 317 317 317 317 317 317 317 317 317 317 317 317 316 316 316 316 316 317 318 320 321 323 324 325 326 327 328 329 330 330 331 329 326 321 316 313 310 309 308 309 310 312 314 316 317 319 320 321 322 323 325 325 325 324 322 320 318 317 315 315 315 316 317 318 319 320 320 320 320 318
314 314 314 313 314 314 314 315 315 315 315 314 314 315 315 316 317 316 316 316 316 316 316 316 316 316 316 315 315 314 314 315 316 318 320 322 324 326 328 329 330 330 331 333 334 334 333 330 326 320 315 312 311 311 312 314 316 318 320 322 323 324 326 328 329 331 331 330 329 326 324 321 320 319 319 320 321 323 324 325 325 326 326 325 324 323
315 315 315 315 315 316 316 317 317 316 315 315 315 315 316 316 316 315 315 314 314 314 314 314 314 314 314 314 314 314 315 316 319 321 324 326 328 330 332 333 333 334 335 337 339 338 336 332 326 320 317 315 315 316 319 321 324 326 328 329 330 333 335 337 339 338 336 333 330 327 325 324 324 324 326 328 329 330 331 331 332 332 332 331 331 332
316 316 316 316 316 317 317 317 317 316 315 314 314 314 315 315 314 313 313 313 313 313 313 313 313 313 314 315 316 317 319 321 324 327 329 331 333 334 336 337 337 338 340 343 345 344 340 334 329 325 323 323 324 326 329 332 334 335 337 339 341 344 346 346 344 342 338 335 332 330 329 329 330 332 335 337 338 338 339 338 339 339 339 340 340 341
317 317 317 317 317 318 317 317 316 316 315 314 313 313 314 313 313 313 312 313 313 313 313 314 315 317 318 321 322 323 325 327 330 332 334 335 336 338 339 340 341 341 344 349 352 350 344 338 334 333 334 335 337 340 342 344 345 346 348 350 352 353 352 350 347 343 339 337 335 335 335 337 339 342 344 346 347 346 346 345 345 346 346 347 347 348
317 317 317 317 318 317 317 317 316 315 314 313 313 313 313 313 313 313 314 314 315 316 317 318 320 322 325 327 329 330 331 333 334 336 337 338 339 340 342 343 344 345 347 354 359 359 349 342 341 343 346 348 351 353 355 355 356 356 357 357 358 357 355 352 349 345 342 341 340 341 343 345 348 351 353 353 352 351 350 349 348 348 348 348 347 345
318 318 318 318 318 318 317 317 316 315 314 313 313 313 313 314 314 315 316 317 319 321 322 324 326 328 330 332 334 335 336 337 337 338 340 341 342 343 345 346 347 348 350 358 8 12 1 351 350 353 356 359 1 3 3 3 2 2 2 2 1 360 357 354 351 348 345 345 346 347 350 353 355 357 357 355 352 350 349 348 347 346 345 343 341 338
320 320 320 320 320 319 318 317 317 316 315 315 315 315 315 316 317 319 320 322 324 326 328 330 331 333 335 336 337 338 339 339 339 340 342 342 344 345 347 348 350 352 353 359 10 22 19 5 359 360 2 5 7 7 7 7 7 7 6 6 4 3 360 356 353 350 349 349 351 353 355 357 357 356 355 351 348 346 344 343 342 341 339 337 335 332
323 323 323 322 322 321 320 319 318 317 317 317 317 317 318 319 321 323 325 326 328 330 332 334 336 337 339 340 341 342 342 341 341 342 343 343 345 346 348 349 352 355 357 359 5 14 21 17 9 5 6 8 8 8 7 8 9 9 10 9 8 6 2 358 355 353 353 354 355 355 356 355 354 352 349 346 343 341 339 338 337 336 335 334 332 330
326 326 325 324 323 322 321 321 320 320 320 320 320 321 322 323 325 327 329 330 332 334 336 338 340 341 342 343 344 344 343 343 342 342 343 343 345 347 348 350 353 357 1 2 4 7 11 17 15 11 9 9 9 8 7 8 9 11 12 12 11 8 3 360 357 356 356 356 355 354 352 351 348 346 343 340 339 337 336 336 335 335 334 332 331 330
329 328 327 326 325 324 323 323 322 323 323 323 323 324 325 327 329 330 332 333 335 337 339 341 343 344 344 344 344 344 343 343 342 342 343 343 344 346 349 351 354 359 5 8 9 9 9 13 15 15 13 11 9 8 7 8 9 10 12 12 11 8 4 1 359 357 356 354 353 351 348 346 344 342 340 339 338 337 337 337 337 336 334 332 330 329
330 330 329 328 327 326 325 325 325 325 325 325 326 327 328 330 332 333 335 336 337 339 341 344 344 344 344 343 343 343 343 343 343 342 343 344 345 347 349 351 355 1 7 12 15 15 14 13 15 17 16 13 10 8 8 7 7 8 9 9 8 6 4 2 360 358 355 353 350 348 347 346 345 344 342 342 341 340 340 340 338 336 333 330 328 327
332 331 330 329 328 327 327 326 327 327 327 328 328 329 330 332 334 336 337 338 340 342 343 345 345 345 344 343 343 343 343 343 344 344 344 345 347 349 351 353 356 1 8 14 18 19 19 16 15 16 18 17 14 11 9 7 6 5 5 5 5 5 4 3 1 359 356 354 352 351 350 350 349 348 347 346 345 343 342 341 338 335 331 328 325 324
333 332 331 330 330 329 328 328 328 329 330 330 330 331 333 335 336 337 339 340 342 344 345 346 346 345 344 344 343 343 343 343 344 345 347 348 350 352 353 354 357 1 8 14 18 20 21 19 16 15 16 19 20 19 15 10 6 4 3 4 4 4 4 4 3 1 359 358 356 356 355 354 353 352 350 349 346 345 343 340 337 333 330 326 324 322
334 333 332 332 331 330 330 329 330 331 332 332 332 333 335 336 338 339 340 342 344 345 346 347 346 344 344 343 342 342 341 342 344 347 350 352 354 355 356 357 358 2 7 13 17 19 21 20 19 17 16 17 20 23 24 20 13 8 4 3 4 5 6 5 5 4 3 1 0 359 358 356 355 353 351 349 347 345 342 339 336 333 329 326 323 320
335 335 334 333 333 332 332 332 332 334 335 334 335 335 337 338 339 340 342 343 345 346 346 346 345 344 343 342 341 340 340 342 345 349 353 356 357 358 359 0 2 4 8 12 15 17 18 19 20 20 19 18 19 20 23 24 20 13 7 5 6 7 7 7 7 6 5 4 3 1 359 357 355 353 352 350 347 345 342 339 336 333 329 326 323 320
337 336 335 335 335 334 334 334 335 336 337 337 338 339 340 340 341 341 342 344 344 345 345 345 344 344 343 342 341 340 340 341 345 349 354 357 359 0 2 5 7 8 10 12 13 15 16 17 18 20 21 21 20 20 20 21 20 17 13 10 8 8 8 9 8 8 8 7 5 3 1 358 356 354 352 350 348 346 343 340 337 333 330 327 324 323
338 338 337 337 336 336 336 336 336 337 339 340 342 344 344 344 343 342 343 342 342 342 343 343 343 343 343 342 341 340 339 341 344 349 354 359 1 3 6 10 13 13 13 12 13 14 16 17 18 19 20 21 20 19 19 19 19 18 17 15 12 11 11 11 11 11 10 9 7 5 2 359 357 354 352 350 348 346 343 340 337 334 331 329 328 327
339 339 338 338 338 338 338 337 338 338 341 344 347 347 345 343 342 341 340 339 339 340 340 340 341 342 343 343 342 340 338 339 344 349 355 360 3 7 11 14 17 17 16 13 12 13 15 17 19 21 22 22 21 20 18 17 17 18 19 18 17 15 14 13 13 12 12 10 8 6 3 360 357 354 352 350 348 346 343 341 338 335 333 331 330 330
340 339 339 339 339 339 339 339 339 340 343 346 349 348 343 340 338 337 336 335 336 337 338 339 339 341 343 345 343 341 338 339 343 350 356 1 6 11 15 18 19 20 18 16 13 12 13 16 18 20 21 22 22 21 20 18 18 18 19 20 21 20 18 16 14 13 11 10 8 6 4 1 357 354 352 350 348 346 344 342 339 336 334 331 331 331
340 340 340 340 340 340 340 340 341 341 344 348 350 347 341 338 335 333 333 333 335 337 339 340 341 342 345 347 347 345 341 341 345 351 357 3 9 14 18 21 21 21 20 19 16 14 13 15 16 17 19 21 22 22 21 20 19 19 20 21 22 22 20 18 16 14 12 10 8 6 4 1 358 355 353 350 349 347 346 344 341 338 336 334 333 333
340 340 340 341 341 341 342 342 342 342 344 348 349 346 340 336 334 333 334 336 339 341 343 344 345 346 347 350 352 353 350 348 348 353 358 3 10 15 20 22 23 23 22 22 20 17 16 15 15 15 16 19 21 23 24 24 23 22 22 22 22 21 18 17 15 14 12 10 8 6 4 2 360 357 354 352 350 349 348 346 344 342 340 338 337 336
341 341 341 342 342 343 343 342 342 343 346 350 351 345 339 334 332 334 338 342 344 346 347 348 349 350 352 356 1 4 4 360 358 358 0 4 9 14 18 21 23 25 25 25 23 21 20 18 17 16 16 18 20 23 26 27 28 26 25 24 22 20 17 15 14 12 11 9 8 6 4 3 1 359 357 355 353 351 350 349 347 346 345 344 343 342
342 342 342 342 343 344 344 343 343 346 351 354 353 344 337 332 334 339 345 348 350 352 353 353 354 355 357 1 7 14 18 15 11 8 6 7 9 11 14 17 21 25 27 27 25 23 22 21 21 21 21 20 22 25 30 32 32 30 27 25 22 19 16 14 12 10 9 8 7 5 4 3 2 1 0 359 356 354 352 351 350 350 350 350 348 347
343 343 343 343 344 345 346 345 346 349 356 359 351 339 331 332 339 346 351 354 356 358 359 359 358 359 0 5 11 17 22 23 21 18 15 12 11 11 11 12 16 20 25 27 27 25 24 25 26 28 29 29 30 32 35 36 34 31 28 25 22 19 16 14 11 9 8 7 5 4 4 4 3 3 3 2 360 357 355 353 353 353 354 353 352 351
344 344 344 344 346 347 348 348 348 351 356 353 339 328 330 339 347 353 357 360 2 3 4 3 2 3 5 9 14 18 21 22 23 23 21 18 16 14 12 11 11 13 17 21 24 26 29 32 34 36 38 39 39 39 38 37 34 31 28 25 22 19 16 13 11 9 7 6 5 4 4 3 3 4 4 3 2 360 358 356 356 356 356 356 355 353
346 345 345 346 347 348 349 348 347 346 342 332 324 328 341 353 358 360 2 4 6 7 6 5 4 5 8 12 17 21 22 23 23 24 24 23 22 20 18 15 12 10 10 13 17 23 30 38 43 45 45 45 44 42 39 36 33 30 27 24 21 19 16 14 11 9 7 6 5 5 4 4 3 3 3 4 3 2 0 359 358 358 358 358 356 354
347 347 346 347 347 348 348 347 344 336 329 328 335 347 357 2 4 5 6 8 9 9 7 6 5 6 9 13 18 22 24 25 26 26 27 28 29 28 26 23 18 14 10 9 10 15 23 34 42 47 48 47 45 42 38 34 31 28 25 23 21 18 16 14 11 9 7 6 6 6 5 4 4 3 3 3 3 3 3 2 1 1 360 359 357 354
349 349 348 348 347 347 347 345 342 339 339 349 0 6 6 6 6 8 9 11 12 11 10 7 6 6 8 13 17 21 24 26 28 29 31 33 34 34 32 29 26 22 17 13 11 12 17 25 34 42 46 46 44 41 37 34 30 27 23 21 18 16 14 12 10 9 7 6 6 6 6 5 4 3 2 2 3 3 4 4 3 2 1 0 358 356
Height
3043 3042 3040 3038 3037 3036 3034 3033 3031 3029 3027 3026 3025 3023 3022 3020 3018 3017 3015 3013 3011 3009 3007 3005 3004 3002 3000 2999 2997 2995 2993 2991 2989 2987 2984 2982 2980 2977 2975 2972 2970 2968 2966 2963 2962 2960 2958 2956 2955 2953 2952 2950 2949 2948 2947 2945 2944 2942 2941 2940 2939 2937 2936 2935 2933 2933 2933 2934 2932 2931 2929 2928 2927 2926 2924 2922 2921 2919 2918 2916 2915 2914 2912 2911 2910 2909
3040 3039 3038 3036 3035 3033 3032 3030 3028 3027 3025 3024 3022 3021 3019 3017 3016 3014 3012 3010 3008 3006 3004 3002 3000 2998 2997 2995 2993 2992 2989 2987 2985 2982 2980 2977 2975 2972 2970 2968 2966 2963 2962 2960 2958 2956 2954 2953 2951 2950 2949 2947 2946 2945 2944 2942 2941 2940 2938 2937 2936 2934 2933 2932 2931 2931 2931 2930 2929 2928 2927 2925 2924 2922 2920 2918 2917 2916 2914 2913 2912 2910 2909 2908 2907 2906
3038 3036 3035 3033 3032 3031 3029 3027 3026 3024 3023 3021 3019 3018 3017 3015 3013 3011 3009 3007 3005 3003 3001 2999 2997 2995 2993 2992 2990 2988 2985 2983 2980 2977 2975 2973 2970 2968 2966 2964 2962 2960 2958 2956 2954 2952 2951 2950 2948 2947 2946 2945 2943 2942 2941 2940 2938 2937 2936 2934 2933 2932 2930 2929 2928 2928 2927 2926 2925 2924 2922 2920 2918 2917 2916 2914 2913 2912 2911 2909 2908 2907 2906 2905 2904 2903
3035 3034 3032 3031 3029 3028 3027 3025 3023 3022 3020 3018 3017 3015 3013 3011 3010 3008 3006 3004 3002 2999 2997 2996 2994 2992 2990 2987 2986 2984 2981 2978 2976 2973 2971 2968 2966 2964 2962 2960 2958 2956 2954 2953 2951 2950 2948 2947 2946 2944 2943 2942 2941 2939 2938 2937 2936 2935 2934 2932 2931 2929 2927 2926 2925 2924 2922 2921 2919 2918 2917 2915 2914 2913 2912 2911 2909 2908 2907 2906 2905 2904 2902 2901 2900 2900
3033 3031 3029 3028 3027 3025 3024 3022 3021 3019 3017 3015 3014 3012 3010 3008 3006 3004 3002 3001 2998 2996 2994 2992 2990 2988 2986 2984 2982 2979 2977 2974 2972 2969 2967 2964 2962 2960 2958 2957 2955 2953 2951 2950 2948 2947 2946 2944 2943 2942 2940 2939 2938 2937 2936 2935 2934 2933 2932 2930 2929 2927 2924 2922 2921 2919 2918 2917 2916 2914 2913 2912 2911 2910 2908 2907 2906 2905 2904 2902 2902 2900 2899 2898 2897 2896
3031 3029 3027 3025 3024 3023 3021 3019 3017 3016 3014 3012 3011 3009 3007 3005 3003 3001 2999 2997 2995 2993 2991 2989 2987 2984 2982 2980 2977 2975 2973 2970 2967 2965 2963 2961 2958 2957 2955 2953 2951 2950 2948 2947 2946 2944 2943 2942 2940 2939 2937 2936 2935 2933 2933 2932 2931 2930 2929 2928 2926 2923 2920 2918 2917 2915 2914 2913 2912 2911 2910 2908 2907 2906 2905 2904 2903 2902 2900 2900 2898 2897 2896 2895 2894 2893
3028 3026 3025 3023 3021 3020 3019 3017 3015 3013 3011 3008 3007 3006 3004 3002 3000 2998 2996 2993 2991 2989 2987 2985 2983 2981 2979 2977 2974 2971 2968 2966 2963 2961 2959 2957 2955 2953 2952 2950 2948 2947 2946 2944 2943 2942 2940 2939 2937 2936 2934 2933 2932 2930 2929 2929 2927 2926 2926 2925 2922 2919 2917 2915 2913 2912 2911 2910 2909 2907 2907 2905 2904 2903 2902 2901 2900 2898 2897 2897 2895 2894 2893 2892 2891 2890
3025 3024 3022 3021 3019 3017 3016 3014 3013 3011 3008 3005 3003 3002 3000 2998 2997 2995 2993 2991 2988 2985 2983 2980 2978 2976 2975 2972 2970 2967 2964 2962 2959 2957 2955 2953 2951 2950 2948 2947 2945 2944 2942 2941 2940 2938 2937 2936 2934 2932 2931 2929 2928 2927 2926 2925 2924 2923 2922 2920 2918 2916 2914 2912 2910 2909 2908 2907 2906 2904 2903 2902 2901 2900 2899 2897 2897 2895 2894 2893 2892 2891 2890 2889 2888 2887
3023 3022 3020 3018 3017 3015 3013 3011 3010 3008 3006 3003 3001 2998 2996 2994 2992 2990 2988 2987 2984 2982 2979 2976 2974 2972 2969 2968 2966 2963 2961 2958 2956 2953 2952 2950 2948 2946 2945 2943 2942 2941 2939 2938 2937 2935 2934 2932 2931 2929 2927 2926 2924 2923 2922 2920 2919 2918 2916 2915 2913 2912 2911 2909 2907 2906 2905 2904 2902 2902 2900 2899 2898 2897 2896 2895 2894 2893 2892 2891 2890 2888 2887 2886 2885 2884
3021 3019 3017 3016 3014 3012 3011 3009 3007 3004 3002 3000 2997 2995 2993 2991 2987 2985 2982 2981 2979 2977 2975 2972 2970 2967 2965 2963 2961 2959 2957 2955 2952 2951 2949 2947 2945 2943 2942 2940 2939 2937 2936 2935 2933 2932 2930 2929 2927 2925 2923 2922 2921 2919 2917 2916 2914 2913 2912 2911 2910 2908 2907 2906 2904 2903 2902 2901 2900 2899 2898 2897 2896 2894 2893 2892 2891 2890 2889 2888 2887 2885 2884 2883 2882 2881
3018 3017 3015 3013 3011 3009 3007 3006 3004 3002 2999 2997 2994 2991 2989 2987 2984 2981 2978 2975 2974 2972 2970 2967 2966 2964 2962 2959 2957 2955 2953 2952 2950 2948 2946 2945 2943 2941 2939 2938 2936 2935 2933 2932 2930 2928 2927 2925 2923 2922 2920 2918 2916 2915 2913 2912 2910 2909 2908 2907 2906 2905 2903 2902 2901 2900 2899 2898 2897 2896 2895 2894 2893 2892 2891 2889 2888 2887 2886 2884 2883 2882 2881 2880 2879 2878
3017 3014 3012 3011 3008 3006 3004 3002 3000 2997 2995 2993 2990 2987 2984 2981 2979 2977 2974 2971 2969 2967 2966 2963 2962 2961 2959 2957 2954 2951 2950 2948 2947 2945 2943 2942 2940 2938 2937 2935 2933 2932 2930 2929 2927 2925 2924 2922 2920 2918 2916 2914 2913 2911 2909 2908 2907 2906 2904 2903 2902 2901 2900 2899 2898 2897 2897 2895 2894 2893 2892 2891 2890 2889 2888 2887 2886 2884 2883 2882 2880 2879 2878 2877 2876 2875
3014 3012 3010 3007 3006 3003 3001 2998 2995 2993 2990 2988 2985 2982 2979 2977 2974 2972 2970 2967 2965 2964 2962 2960 2958 2957 2956 2954 2951 2949 2947 2945 2943 2942 2940 2939 2937 2936 2934 2932 2930 2929 2927 2926 2924 2922 2921 2918 2917 2915 2913 2911 2909 2908 2907 2905 2904 2903 2902 2901 2899 2898 2897 2897 2896 2895 2894 2893 2892 2891 2890 2888 2887 2886 2885 2884 2883 2882 2880 2879 2877 2877 2875 2874 2873 2873
3011 3009 3007 3004 3002 2999 2997 2994 2991 2988 2985 2983 2981 2978 2975 2973 2970 2968 2966 2964 2962 2960 2959 2957 2956 2954 2953 2951 2949 2946 2944 2942 2940 2939 2937 2936 2935 2933 2931 2929 2927 2926 2924 2922 2921 2919 2917 2915 2913 2911 2910 2908 2907 2905 2904 2902 2901 2900 2899 2898 2897 2896 2895 2894 2893 2892 2891 2890 2889 2888 2887 2886 2885 2884 2882 2881 2880 2879 2877 2876 2875 2874 2873 2872 2871 2870
3008 3006 3003 3000 2997 2995 2992 2989 2987 2984 2981 2979 2977 2974 2972 2969 2967 2965 2963 2961 2959 2957 2956 2954 2952 2951 2950 2948 2947 2944 2941 2939 2937 2935 2934 2933 2932 2930 2928 2926 2924 2922 2921 2919 2917 2915 2913 2912 2910 2908 2906 2905 2904 2902 2901 2900 2899 2898 2897 2896 2894 2893 2892 2892 2891 2889 2888 2887 2886 2885 2884 2883 2882 2881 2880 2879 2877 2876 2875 2874 2873 2872 2871 2870 2869 2868
3005 3002 2999 2996 2993 2991 2988 2986 2983 2980 2978 2975 2973 2971 2969 2967 2964 2962 2960 2958 2956 2954 2952 2951 2948 2947 2945 2945 2944 2942 2939 2936 2933 2932 2930 2929 2928 2927 2925 2922 2920 2918 2917 2916 2914 2912 2910 2908 2906 2905 2903 2902 2901 2900 2898 2897 2896 2895 2894 2893 2892 2891 2890 2889 2888 2887 2886 2885 2884 2883 2882 2881 2880 2878 2877 2876 2875 2874 2872 2872 2871 2870 2869 2868 2867 2867
3002 2999 2995 2992 2990 2987 2985 2982 2980 2977 2975 2972 2970 2968 2966 2964 2962 2960 2957 2955 2953 2951 2949 2947 2946 2944 2942 2940 2940 2938 2937 2933 2930 2928 2927 2926 2925 2923 2921 2919 2917 2915 2913 2912 2911 2909 2907 2905 2903 2902 2901 2900 2898 2897 2896 2895 2894 2892 2892 2890 2889 2888 2887 2886 2885 2884 2883 2882 2882 2880 2879 2878 2877 2876 2875 2874 2873 2872 2870 2869 2868 2868 2867 2866 2865 2865
2998 2995 2992 2989 2986 2983 2982 2979 2977 2974 2971 2969 2967 2965 2963 2961 2959 2957 2955 2953 2951 2949 2947 2945 2943 2942 2940 2937 2936 2935 2933 2931 2927 2925 2924 2923 2922 2920 2918 2916 2914 2912 2911 2909 2908 2906 2904 2903 2901 2900 2898 2897 2896 2895 2894 2892 2892 2890 2889 2888 2887 2886 2885 2884 2883 2882 2881 2880 2879 2878 2877 2876 2875 2874 2873 2872 2871 2870 2869 2868 2867 2866 2865 2864 2864 2863
2994 2991 2988 2986 2983 2980 2978 2976 2973 2971 2969 2966 2964 2962 2960 2958 2957 2955 2953 2951 2949 2947 2946 2943 2942 2940 2938 2936 2934 2932 2930 2928 2925 2923 2921 2920 2918 2917 2915 2913 2911 2910 2909 2907 2906 2904 2902 2901 2899 2898 2897 2895 2894 2893 2892 2890 2889 2888 2887 2886 2885 2884 2883 2882 2881 2880 2879 2878 2877 2877 2875 2874 2873 2872 2871 2870 2869 2868 2867 2866 2865 2864 2864 2863 2862 2862
2990 2987 2985 2983 2980 2977 2974 2972 2970 2968 2966 2964 2962 2959 2957 2956 2954 2952 2951 2949 2947 2945 2943 2942 2940 2938 2936 2934 2932 2930 2927 2925 2923 2921 2919 2917 2916 2915 2913 2911 2909 2908 2907 2906 2904 2902 2901 2899 2898 2896 2895 2893 2892 2891 2889 2888 2887 2886 2885 2884 2883 2882 2881 2880 2879 2878 2877 2877 2876 2875 2874 2872 2872 2870 2869 2868 2867 2867 2866 2865 2864 2863 2862 2862 2861 2860
2987 2984 2981 2979 2977 2975 2972 2970 2967 2966 2964 2962 2959 2957 2954 2953 2952 2950 2948 2947 2945 2943 2941 2939 2937 2936 2934 2932 2929 2927 2925 2922 2920 2918 2917 2916 2914 2913 2911 2909 2907 2906 2905 2904 2902 2901 2899 2898 2896 2894 2893 2891 2890 2889 2887 2886 2885 2884 2883 2882 2882 2881 2880 2879 2878 2877 2876 2875 2874 2873 2872 2871 2870 2869 2868 2867 2866 2865 2864 2863 2863 2862 2861 2860 2860 2859
2984 2982 2979 2976 2974 2972 2970 2967 2965 2963 2961 2959 2957 2954 2952 2951 2949 2947 2945 2943 2942 2940 2938 2937 2935 2933 2932 2929 2927 2925 2922 2921 2919 2917 2915 2914 2912 2911 2910 2908 2906 2905 2903 2902 2901 2899 2898 2896 2894 2893 2891 2889 2888 2887 2886 2885 2884 2883 2882 2881 2880 2879 2878 2878 2877 2876 2875 2874 2873 2872 2871 2870 2869 2867 2867 2866 2865 2864 2863 2862 2862 2861 2860 2859 2858 2857
2982 2979 2976 2974 2972 2969 2967 2965 2963 2961 2959 2957 2954 2952 2951 2949 2947 2945 2943 2941 2939 2938 2936 2935 2933 2932 2930 2928 2926 2923 2921 2919 2917 2916 2914 2913 2911 2910 2908 2907 2905 2903 2902 2900 2899 2897 2896 2895 2893 2891 2889 2888 2887 2885 2884 2883 2882 2882 2881 2880 2879 2878 2877 2877 2876 2875 2874 2873 2872 2871 2870 2869 2867 2867 2866 2865 2864 2863 2862 2861 2860 2860 2859 2858 2857 2856
2978 2976 2973 2971 2969 2967 2965 2963 2961 2959 2956 2954 2952 2950 2948 2947 2946 2944 2942 2939 2938 2936 2934 2933 2931 2930 2928 2927 2925 2922 2920 2918 2917 2915 2913 2912 2910 2908 2907 2905 2903 2902 2900 2899 2897 2896 2894 2892 2891 2889 2887 2886 2885 2884 2883 2882 2881 2881 2880 2879 2878 2877 2877 2876 2875 2874 2873 2872 2871 2870 2869 2867 2867 2866 2865 2864 2863 2862 2861 2860 2859 2858 2858 2857 2856 2855
2976 2973 2971 2968 2966 2964 2962 2961 2959 2956 2954 2952 2949 2947 2946 2945 2943 2942 2940 2938 2936 2935 2933 2931 2930 2928 2927 2925 2923 2921 2919 2917 2916 2914 2912 2911 2909 2907 2905 2904 2902 2900 2898 2897 2896 2894 2892 2891 2889 2887 2886 2885 2884 2883 2882 2881 2881 2880 2879 2878 2877 2877 2876 2875 2874 2873 2872 2871 2870 2869 2868 2867 2866 2865 2864 2863 2862 2861 2860 2859 2858 2857 2857 2856 2855 2854
2973 2971 2968 2966 2964 2962 2961 2959 2957 2954 2952 2949 2947 2945 2944 2942 2941 2940 2938 2937 2935 2933 2931 2930 2928 2927 2925 2923 2921 2919 2917 2916 2914 2912 2911 2909 2907 2906 2904 2902 2900 2898 2897 2895 2894 2892 2891 2889 2888 2887 2885 2884 2883 2882 2882 2881 2880 2879 2879 2878 2877 2876 2875 2874 2873 2872 2871 2870 2869 2868 2867 2866 2865 2864 2863 2862 2861 2860 2859 2858 2857 2857 2856 2855 2854 2854
2971 2968 2966 2964 2962 2960 2958 2957 2955 2952 2950 2947 2945 2943 2942 2940 2939 2937 2936 2934 2933 2931 2929 2927 2926 2924 2922 2921 2919 2917 2916 2914 2913 2911 2910 2908 2906 2904 2902 2901 2899 2897 2895 2894 2893 2891 2889 2888 2887 2886 2885 2884 2883 2882 2882 2881 2880 2879 2878 2877 2877 2876 2875 2874 2873 2872 2871 2870 2869 2867 2867 2865 2864 2863 2862 2862 2861 2860 2859 2858 2857 2856 2856 2855 2854 2853
2969 2967 2965 2962 2961 2958 2957 2954 2952 2951 2948 2946 2943 2942 2940 2938 2937 2935 2933 2932 2930 2928 2927 2925 2923 2922 2921 2919 2918 2916 2914 2913 2912 2910 2908 2907 2905 2903 2901 2899 2897 2896 2894 2893 2892 2891 2889 2887 2886 2886 2885 2884 2883 2882 2881 2881 2880 2879 2878 2877 2876 2875 2875 2873 2872 2872 2870 2869 2868 2867 2866 2865 2864 2863 2862 2861 2860 2859 2858 2857 2857 2856 2855 2854 2853 2853
2968 2966 2963 2961 2959 2957 2954 2952 2950 2948 2946 2943 2942 2939 2938 2936 2934 2933 2931 2929 2928 2926 2924 2923 2922 2920 2919 2918 2917 2915 2914 2912 2910 2909 2907 2906 2904 2902 2900 2898 2897 2895 2893 2892 2892 2891 2889 2887 2886 2886 2885 2884 2883 2882 2881 2881 2880 2879 2878 2877 2876 2875 2874 2873 2872 2871 2870 2869 2868 2867 2866 2865 2864 2863 2862 2861 2860 2859 2858 2857 2856 2855 2854 2854 2853 2852
2966 2963 2961 2958 2956 2954 2952 2950 2948 2946 2943 2941 2939 2937 2935 2934 2932 2931 2929 2927 2926 2924 2923 2922 2920 2919 2918 2917 2916 2914 2913 2911 2909 2908 2906 2904 2902 2901 2899 2898 2896 2895 2893 2892 2892 2891 2889 2888 2887 2886 2885 2884 2883 2882 2881 2881 2880 2879 2878 2877 2877 2875 2874 2873 2872 2871 2870 2869 2868 2867 2866 2865 2863 2862 2862 2861 2860 2859 2858 2857 2856 2855 2854 2853 2852 2852
2963 2961 2958 2956 2954 2952 2949 2947 2945 2943 2941 2939 2937 2935 2933 2932 2930 2929 2927 2926 2924 2923 2922 2921 2920 2918 2917 2916 2914 2913 2912 2910 2908 2907 2905 2903 2902 2900 2898 2897 2896 2895 2893 2892 2891 2890 2889 2888 2887 2886 2885 2884 2883 2882 2882 2881 2880 2879 2878 2877 2877 2876 2875 2873 2872 2871 2870 2869 2868 2867 2866 2865 2864 2862 2862 2861 2859 2858 2857 2856 2855 2854 2853 2852 2852 2851
2961 2958 2956 2954 2952 2949 2947 2945 2943 2941 2939 2937 2936 2934 2932 2930 2929 2927 2926 2925 2923 2922 2922 2920 2919 2918 2917 2915 2914 2912 2911 2909 2907 2906 2904 2903 2901 2900 2898 2897 2896 2895 2894 2892 2891 2890 2889 2888 2887 2886 2885 2884 2883 2882 2882 2881 2880 2879 2878 2877 2877 2876 2875 2873 2872 2871 2870 2869 2868 2867 2866 2865 2864 2862 2862 2860 2859 2858 2857 2856 2855 2853 2852 2851 2850 2849
2958 2956 2954 2952 2950 2947 2945 2943 2941 2939 2937 2936 2934 2932 2931 2929 2928 2926 2925 2924 2923 2922 2921 2920 2919 2918 2917 2916 2914 2913 2911 2909 2907 2906 2904 2902 2901 2899 2898 2897 2896 2895 2894 2893 2892 2891 2889 2888 2887 2887 2886 2884 2884 2883 2882 2881 2880 2879 2878 2877 2877 2876 2875 2874 2872 2872 2870 2869 2868 2867 2866 2865 2864 2862 2861 2860 2859 2858 2857 2855 2854 2852 2851 2850 2849 2848
2957 2954 2952 2950 2948 2946 2943 2942 2940 2938 2936 2934 2932 2931 2929 2928 2927 2926 2924 2923 2922 2921 2921 2920 2919 2917 2916 2915 2914 2912 2911 2909 2907 2906 2904 2902 2901 2899 2898 2897 2896 2895 2894 2893 2892 2891 2890 2889 2888 2887 2886 2885 2884 2883 2882 2881 2880 2879 2878 2877 2877 2876 2875 2874 2873 2872 2871 2869 2868 2867 2866 2865 2864 2862 2861 2860 2858 2857 2856 2855 2853 2852 2851 2849 2848 2847
2955 2953 2951 2948 2946 2944 2942 2940 2938 2936 2935 2933 2931 2930 2928 2927 2926 2925 2924 2923 2922 2921 2920 2919 2918 2917 2916 2914 2913 2912 2910 2909 2907 2906 2904 2902 2901 2899 2898 2897 2896 2895 2894 2893 2892 2892 2891 2889 2888 2887 2887 2886 2885 2883 2882 2881 2880 2879 2878 2877 2877 2876 2875 2874 2873 2872 2871 2870 2868 2867 2866 2865 2863 2862 2861 2859 2858 2857 2855 2854 2853 2852 2850 2849 2847 2846
2953 2951 2949 2947 2945 2942 2940 2938 2937 2935 2933 2932 2930 2929 2928 2927 2926 2925 2923 2922 2922 2921 2920 2919 2917 2917 2915 2914 2912 2911 2909 2908 2907 2906 2904 2902 2901 2900 2898 2897 2896 2895 2894 2893 2893 2892 2891 2890 2889 2888 2887 2886 2885 2884 2883 2882 2881 2880 2879 2878 2877 2876 2875 2874 2873 2872 2871 2869 2868 2867 2865 2864 2863 2862 2860 2859 2857 2856 2855 2853 2852 2851 2849 2848 2847 2845
2952 2950 2947 2945 2943 2941 2939 2937 2935 2934 2932 2931 2929 2928 2927 2926 2925 2924 2923 2922 2922 2921 2920 2919 2917 2916 2915 2914 2912 2911 2909 2908 2907 2905 2904 2902 2901 2900 2899 2898 2897 2896 2895 2894 2893 2892 2891 2891 2890 2888 2887 2887 2886 2885 2884 2883 2882 2881 2879 2878 2877 2877 2875 2874 2873 2872 2871 2869 2868 2867 2865 2863 2862 2861 2860 2858 2857 2855 2854 2852 2851 2850 2848 2847 2846 2844
2950 2948 2946 2943 2942 2939 2937 2935 2934 2932 2932 2930 2929 2927 2927 2926 2925 2924 2923 2922 2922 2921 2920 2919 2918 2917 2915 2914 2912 2910 2909 2907 2906 2905 2904 2902 2901 2900 2899 2898 2897 2896 2895 2894 2893 2892 2892 2891 2890 2889 2888 2887 2886 2885 2884 2883 2882 2881 2880 2879 2878 2877 2876 2874 2873 2872 2871 2869 2868 2867 2865 2863 2862 2860 2859 2857 2856 2855 2853 2852 2850 2849 2847 2846 2845 2843
2949 2947 2944 2942 2940 2938 2936 2934 2932 2931 2931 2929 2928 2927 2926 2925 2925 2924 2923 2922 2922 2921 2920 2919 2918 2917 2916 2914 2912 2910 2909 2907 2906 2905 2904 2902 2902 2901 2900 2899 2897 2897 2896 2895 2893 2893 2892 2891 2890 2889 2888 2887 2887 2886 2885 2884 2883 2882 2881 2879 2878 2877 2876 2875 2873 2872 2871 2869 2868 2867 2865 2863 2862 2860 2858 2857 2855 2854 2852 2851 2849 2848 2847 2845 2844 2842
2947 2945 2942 2941 2939 2937 2935 2933 2932 2930 2929 2928 2927 2927 2926 2925 2924 2924 2923 2922 2922 2921 2921 2920 2919 2917 2916 2914 2912 2911 2909 2907 2906 2905 2904 2903 2902 2901 2900 2899 2898 2897 2896 2895 2894 2893 2892 2891 2891 2890 2889 2888 2887 2886 2885 2884 2883 2882 2881 2880 2879 2877 2876 2875 2873 2872 2871 2869 2868 2867 2865 2863 2862 2860 2858 2856 2855 2853 2852 2850 2848 2847 2845 2844 2842 2842
2945 2943 2941 2939 2937 2935 2933 2932 2931 2929 2928 2927 2927 2926 2926 2925 2925 2924 2923 2923 2922 2922 2921 2920 2919 2918 2917 2915 2913 2911 2909 2907 2906 2905 2904 2903 2902 2901 2900 2899 2898 2897 2897 2895 2894 2893 2892 2892 2891 2890 2889 2888 2887 2886 2885 2884 2883 2882 2881 2880 2879 2877 2876 2875 2874 2872 2871 2870 2868 2867 2865 2863 2862 2860 2858 2856 2854 2852 2850 2849 2847 2845 2844 2842 2841 2840
2944 2942 2940 2938 2936 2934 2932 2931 2929 2928 2927 2927 2927 2926 2926 2925 2925 2924 2923 2923 2922 2922 2921 2920 2919 2918 2917 2916 2914 2912 2909 2908 2906 2905 2904 2903 2902 2902 2900 2899 2899 2898 2897 2896 2895 2894 2893 2892 2891 2890 2889 2888 2887 2887 2885 2884 2883 2882 2881 2880 2879 2878 2877 2876 2874 2873 2872 2870 2869 2867 2866 2864 2862 2860 2857 2855 2853 2852 2850 2848 2846 2844 2843 2841 2840 2838
2942 2940 2938 2937 2935 2933 2932 2930 2929 2928 2927 2927 2926 2926 2925 2925 2924 2924 2923 2922 2922 2921 2921 2920 2919 2918 2917 2915 2914 2912 2910 2908 2907 2906 2905 2904 2903 2902 2901 2900 2899 2898 2897 2896 2895 2894 2893 2892 2891 2890 2890 2888 2887 2887 2886 2885 2883 2882 2882 2880 2879 2878 2877 2876 2875 2873 2872 2871 2869 2867 2866 2864 2862 2860 2857 2855 2853 2851 2849 2847 2845 2844 2842 2840 2839 2838
2941 2939 2937 2935 2934 2932 2930 2929 2928 2927 2927 2926 2926 2926 2925 2925 2924 2923 2923 2922 2922 2921 2920 2919 2918 2917 2916 2915 2913 2912 2910 2908 2907 2906 2905 2904 2903 2902 2901 2900 2899 2898 2898 2897 2896 2895 2894 2893 2892 2891 2890 2889 2888 2887 2886 2885 2884 2883 2882 2881 2880 2878 2877 2876 2875 2874 2872 2871 2869 2868 2866 2864 2862 2860 2857 2855 2852 2850 2848 2847 2845 2843 2842 2840 2838 2837
2940 2938 2936 2934 2932 2931 2930 2928 2927 2927 2927 2926 2926 2925 2925 2924 2924 2923 2923 2922 2921 2921 2919 2918 2917 2916 2915 2914 2912 2912 2910 2909 2908 2907 2905 2904 2903 2902 2901 2900 2900 2899 2898 2897 2897 2895 2894 2893 2892 2892 2890 2889 2888 2887 2887 2886 2885 2884 2883 2882 2880 2879 2878 2877 2875 2874 2872 2871 2869 2868 2866 2864 2862 2860 2858 2855 2852 2850 2847 2846 2844 2842 2841 2839 2838 2837
2939 2937 2935 2933 2932 2930 2929 2928 2927 2927 2926 2926 2925 2925 2925 2924 2923 2923 2923 2922 2921 2920 2919 2918 2917 2915 2914 2913 2912 2911 2910 2909 2908 2907 2906 2905 2904 2902 2902 2901 2900 2899 2898 2898 2897 2896 2895 2894 2893 2892 2891 2890 2889 2888 2887 2887 2886 2885 2883 2882 2881 2880 2879 2877 2876 2874 2872 2871 2869 2868 2867 2865 2863 2860 2858 2855 2852 2850 2847 2845 2843 2842 2840 2839 2837 2836
2938 2936 2934 2932 2931 2930 2928 2927 2927 2926 2926 2926 2925 2925 2924 2924 2924 2923 2923 2922 2921 2920 2919 2918 2917 2915 2914 2912 2912 2911 2910 2909 2908 2907 2906 2905 2904 2903 2902 2901 2900 2899 2898 2898 2897 2896 2896 2895 2894 2893 2892 2891 2890 2889 2888 2887 2887 2885 2884 2883 2882 2881 2879 2878 2876 2875 2873 2871 2870 2868 2867 2865 2862 2860 2858 2855 2852 2850 2847 2845 2843 2841 2840 2838 2837 2836
2937 2935 2933 2931 2930 2929 2928 2927 2927 2926 2926 2925 2925 2925 2924 2924 2924 2923 2923 2922 2921 2920 2919 2918 2917 2915 2914 2912 2912 2911 2910 2909 2908 2907 2907 2906 2905 2904 2903 2902 2901 2899 2899 2898 2897 2897 2896 2895 2894 2893 2892 2892 2891 2890 2889 2888 2887 2886 2885 2884 2883 2882 2880 2878 2877 2875 2874 2872 2870 2868 2866 2864 2862 2859 2857 2855 2852 2850 2847 2845 2843 2841 2840 2838 2837 2836
2936 2934 2932 2931 2929 2928 2927 2927 2926 2926 2925 2925 2925 2924 2924 2924 2924 2923 2922 2922 2921 2920 2919 2917 2916 2915 2914 2913 2912 2911 2910 2909 2909 2908 2907 2906 2906 2905 2903 2902 2902 2900 2899 2898 2897 2897 2896 2895 2894 2894 2893 2892 2892 2891 2890 2889 2888 2887 2886 2885 2883 2882 2881 2879 2877 2876 2874 2873 2871 2869 2867 2864 2862 2859 2857 2855 2852 2850 2848 2845 2843 2842 2840 2838 2837 2836
2935 2933 2931 2930 2929 2928 2927 2927 2926 2926 2925 2925 2924 2924 2924 2924 2924 2923 2922 2922 2921 2920 2918 2917 2916 2915 2914 2913 2912 2911 2911 2910 2909 2908 2908 2907 2906 2905 2904 2903 2902 2902 2900 2899 2898 2897 2896 2895 2895 2894 2894 2893 2892 2892 2891 2890 2889 2888 2887 2885 2884 2883 2881 2880 2878 2877 2875 2873 2871 2869 2867 2864 2861 2859 2857 2854 2852 2850 2848 2846 2844 2842 2840 2838 2837 2836
2934 2932 2931 2929 2928 2927 2927 2926 2926 2925 2925 2925 2925 2925 2924 2924 2924 2923 2922 2922 2921 2920 2919 2917 2916 2915 2914 2913 2912 2912 2911 2910 2910 2909 2908 2907 2907 2906 2905 2904 2903 2902 2902 2901 2900 2898 2897 2896 2896 2895 2895 2894 2893 2892 2892 2891 2890 2889 2887 2886 2885 2883 2882 2881 2879 2877 2875 2873 2871 2869 2866 2864 2861 2858 2856 2854 2852 2850 2848 2846 2844 2842 2840 2839 2837 2836